Regional Weather Roundup
Issued by NWS

Home | Current Version | Previous Version | Text Only | Print | Product List | Glossary On
Versions: 1 2 3 4 5 6 7 8 9 10 11 12 13 14 15 16 17 18 19 20 21 22 23 24 25 26 27 28 29 30 31 32 33 34 35 36 37 38 39 40 41 42 43 44 45 46 47 48 49 50
000
ASUS44 KEWX 042203
RWRTX
SOUTH TEXAS REGIONAL WEATHER ROUNDUP
NATIONAL WEATHER SERVICE AUSTIN/SAN ANTONIO TX
500 PM CDT MON MAY 04 2015

NOTE: "FAIR" INDICATED FEW OR NO CLOUDS BELOW 12,000 FEET WITH NO
SIGNIFICANT WEATHER AND/OR OBSTRUCTIONS TO VISIBILITY.

* - THESE STATIONS ARE NOT NWS OR FAA STATIONS...AND ARE NOT SUBJECT
    TO NWS AND FAA QUALITY CONTROL.

TXZ171-172-183>190-042300-
TEXAS HILL COUNTRY AND EDWARDS PLATEAU

CITY           SKY/WX    TMP DP  RH WIND       PRES   REMARKS
JUNCTION       PTSUNNY   79  61  53 SE23G30   29.97F
*LLANO         MOSUNNY   82  63  51 S15G22    30.01F
BURNET         CLOUDY    79  58  48 S12G18    30.02F
*HORSESHOE BAY PTSUNNY   83  62  48 S10G21    29.99F
*KERRVILLE     CLOUDY    76  64  64 SE13      30.00F
*FREDERICKSBRG PTSUNNY   75  62  62 SE10G16   30.01F
*ROCKSPRINGS   MOSUNNY   73  64  73 SE15G24   30.01F
*BOERNE STAGE  PTSUNNY   75  61  60 SE10      30.01F
*CASTROVILLE   PTSUNNY   80  61  51 SE14G23   29.99S
HONDO          PTSUNNY   80  62  54 SE17G28   29.98F
*UVALDE        MOSUNNY   78  65  63 SE17      29.96F
DEL RIO        CLOUDY    81  66  60 SE18G32   29.89F
LAUGHLIN AFB   PTSUNNY   80  67  64 SE23G32   29.90F
CARRIZO SPRGS  CLOUDY    79  64  61 SE13G23   29.92F
$$

TXZ173-191>194-202-209-217>225-228-042300-
CENTRAL AND SOUTH CENTRAL TEXAS

CITY           SKY/WX    TMP DP  RH WIND       PRES   REMARKS
GEORGETOWN     PTSUNNY   82  61  47 E14G21    29.99F
AUSTIN/BERGSTM MOSUNNY   83  63  50 SE16G24   29.98F
AUSTIN/MABRY   MOSUNNY   82  62  50 SE12G21   29.99F
*AUSTIN/EXEC   MOSUNNY   82  61  47 SE15      30.00F
*LAGO VISTA    PTSUNNY   81  59  47 SE10G21   30.01S
SAN MARCOS     MOSUNNY   82  61  47 S15G24    29.99F
NEW BRAUNFELS  CLOUDY    84  63  49 SE18G25   29.97F
RANDOLPH AFB   PTSUNNY   79  63  57 SE15      29.98F
PT SAN ANTONIO PTSUNNY   80  64  56 SE15G24   29.96F
SAN ANTONIO    PTSUNNY   81  63  54 SE21G26   29.99F
STINSON FIELD  PTSUNNY   81  63  54 SE16G22   29.96F
*PLEASANTON    MOSUNNY   83  62  49 SE15G23   29.97F
*LA GRANGE     MOSUNNY   84  63  50 SE12      30.00F
*GIDDINGS      MOSUNNY   80  60  50 SE6       30.04F
*GONZALES      MOSUNNY   84  63  48 SE17G24   29.99F
$$

TXZ163>164-176>182-195>201-210>213-226-227-235-042300-
SOUTHEAST TEXAS

CITY           SKY/WX    TMP DP  RH WIND       PRES   REMARKS
COLLEGE STN    SUNNY     83  57  41 SE14      30.02F
*BRYAN         SUNNY     82  59  45 E9G17     30.04F
*CALDWELL      MOSUNNY   82  57  42 SE10      30.05F
*CROCKETT      NOT AVBL
*BRENHAM       SUNNY     84  59  42 E12       30.03S
HUNTSVILLE     SUNNY     83  53  35 VRB6      30.04F
CONROE         MOSUNNY   81  51  35 E9        30.05F
HOUSTON BUSH   MOSUNNY   81  58  45 SE20      30.05S
HOUSTON HOBBY  MOSUNNY   80  60  50 E14       30.05S
*HOUSTON SW AP SUNNY     88  64  44 E10       30.06S
PEARLAND       MOSUNNY   81  60  48 E14G22    30.06F
HOUSTON HOOKS  MOSUNNY   82  55  39 SE14G20   30.04F
ELLINGTON FLD  MOSUNNY   77  57  50 E12G18    30.08S
SUGAR LAND     SUNNY     82  56  40 SE12      30.03F
*HOUSTON EXEC  SUNNY     82  55  39 SE10G16   30.04F
*CLEVELAND MUN SUNNY     84  56  38 S7        30.06F HAZE
*WHARTON       CLOUDY    79  59  50 E10       30.03F
*COLUMBUS      FAIR      82  61  48 SE9G17    30.01F
$$

TXZ214>216-236>238-042300-
THE UPPER TEXAS COAST

CITY           SKY/WX    TMP DP  RH WIND       PRES   REMARKS
*ORANGE        PTSUNNY   79  52  39 SE8       30.09S
PORT ARTHUR    SUNNY     81  59  47 SE12      30.07S
GALVESTON      SUNNY     79  63  57 E17       30.07F
ANGLETON       MOSUNNY   79  61  53 SE10      30.05S
*BAY CITY      SUNNY     82  58  43 E13       30.04F
PALACIOS       LGT RAIN  81  62  52 SE17      30.03F
$$

TXZ229>234-239>247-042300-
TEXAS COASTAL BEND AND RIO GRANDE PLAINS

CITY           SKY/WX    TMP DP  RH WIND       PRES   REMARKS
VICTORIA       SUNNY     81  63  54 SE17      30.01F
*BEEVILLE      MOSUNNY   82  66  58 SE21      29.98F
ROCKPORT       SUNNY     81  67  62 SE18      30.00F
*PORT ARANSAS  MOSUNNY   79  70  75 E16G22    30.00F
*PORT LAVACA   SUNNY     79  65  63 E18G26    30.02F
*INGLESIDE     MOSUNNY   82  68  62 SE24G30   30.00F
CORPUS CHRISTI PTSUNNY   80  68  66 E20G28    29.99F
CORPUS NAS     PTSUNNY   80  70  71 E20       29.99F
*ROBSTOWN      PTSUNNY   82  66  57 SE18G25   29.99F
ALICE          PTSUNNY   85  63  47 SE18      29.96F
KINGSVILLE NAS PTSUNNY   82  69  64 SE16      29.98F
COTULLA        PTSUNNY   83  63  50 SE18G26   29.94F
*FAITH RANCH   PTSUNNY   81  66  61 SE13G21   29.93F
LAREDO         CLOUDY    78  67  68 SE9       29.95F
$$

TXZ248>255-042300-
DEEP SOUTH TEXAS

CITY           SKY/WX    TMP DP  RH WIND       PRES   REMARKS
BROWNSVILLE    PTSUNNY   81  69  67 SE16      29.96S
PORT ISABEL    PTSUNNY   82  68  62 SE21      29.96F
*SOUTH PADRE     N/A    N/A N/A N/A MISG        N/A
HARLINGEN      CLOUDY    83  69  62 E16       29.95S
*HEBBRONVILLE    N/A     81  64  55 E18       29.96F
MCALLEN        CLOUDY    84  65  52 SE18      29.94F
*WESLACO       CLOUDY    84  64  52 SE10G18   29.95S
FALFURRIAS     PTSUNNY   82  65  55 SE15G21   29.96F
EDINBURG       CLOUDY    85  64  48 SE15      29.95S
*ZAPATA        CLOUDY    79  68  69 E12       29.92F
$$

TXZ213>215-236>238-242>244-246-247-251-254-255-042300-
CMAN STATIONS

STATION/POSITION TIME  TEMP    WIND        PRES    WAVE
                       AIR SEA DIR/SP/G            HT/PER
                 (UTC) (F)     (DEG/KT/KT) (MB)    (FT/S)
$$

GMZ080-GMZ150>470-042300-
OFFSHORE BUOY REPORTS

STATION/POSITION TIME  TEMP    WIND        PRES    WAVE
                       AIR SEA DIR/SP/G            HT/PER
                 (UTC) (F)     (DEG/KT/KT) (MB)    (FT/S)
$$


USA.gov is the U.S. government's official web portal to all federal, state and local government web resources and services.